CW3161 Weather Reports


Display with metric or nautical units.
time (UTC)temp
F
wind
direction
speed
MPH
gust
MPH
rain 1hr
in
rain 24hr
in
rain mn
in
humidity
%
barometer
mb
20220522144539 62 264 0.0 4.0 0.00 0.00 0.00 47 1014.5
20220522143036 59 272 2.0 8.0 0.00 0.00 0.00 49 1014.4
20220522141536 58 281 2.0 7.0 0.00 0.00 0.00 51 1014.4
20220522140037 56 283 0.0 5.0 0.00 0.00 0.00 53 1014.2
20220522134530 55 241 1.0 4.0 0.00 0.00 0.00 54 1014.1
20220522133036 54 266 1.0 5.0 0.00 0.00 0.00 53 1013.9
20220522131529 54 281 1.0 4.0 0.00 0.00 0.00 53 1013.6
20220522130027 54 279 1.0 4.0 0.00 0.00 0.00 53 1013.6
20220522124526 54 247 0.0 8.0 0.00 0.00 0.00 53 1013.4
20220522123030 55 264 0.0 6.0 0.00 0.00 0.00 52 1013.3
20220522121524 54 246 0.0 7.0 0.00 0.00 0.00 52 1013.5
20220522120038 54 265 0.0 3.0 0.00 0.00 0.00 52 1013.4
20220522114522 54 216 0.0 5.0 0.00 0.00 0.00 51 1013.5
20220522113021 54 283 1.0 4.0 0.00 0.00 0.00 52 1013.4
20220522111523 54 280 0.0 2.0 0.00 0.00 0.00 51 1013.4
20220522110022 55 290 0.0 3.0 0.00 0.00 0.00 50 1013.5
20220522104523 54 275 0.0 2.0 0.00 0.00 0.00 51 1013.5
20220522103016 55 264 0.0 4.0 0.00 0.00 0.00 50 1013.5
20220522101515 55 281 0.0 1.0 0.00 0.00 0.00 49 1013.4
20220522100014 55 302 1.0 4.0 0.00 0.00 0.00 49 1013.4
20220522094513 56 268 0.0 4.0 0.00 0.00 0.00 47 1013.5
20220522093009 56 286 1.0 5.0 0.00 0.00 0.00 46 1013.5
20220522091520 56 275 0.0 3.0 0.00 0.00 0.00 46 1013.5
20220522090005 56 301 1.0 4.0 0.00 0.00 0.00 46 1013.6
20220522084504 56 289 0.0 1.0 0.00 0.00 0.00 46 1013.7
20220522083002 56 231 0.0 3.0 0.00 0.00 0.00 46 1013.8
20220522081559 57 253 0.0 2.0 0.00 0.00 0.00 44 1013.8
20220522080102 58 266 0.0 3.0 0.00 0.00 0.00 44 1013.9
20220522074558 58 284 0.0 2.0 0.00 0.00 0.00 43 1013.9
20220522073051 59 280 0.0 3.0 0.00 0.00 0.00 42 1013.9
20220522071605 60 247 0.0 3.0 0.00 0.00 0.00 40 1013.9
20220522070046 60 288 0.0 0.0 0.00 0.00 0.00 36 1013.9
20220522064546 60 288 0.0 0.0 0.00 0.00 0.00 37 1013.8
20220522063102 61 288 0.0 0.0 0.00 0.00 0.00 36 1014.0
20220522061545 61 286 0.0 0.0 0.00 0.00 0.00 36 1013.8
20220522060045 61 263 0.0 0.0 0.00 0.00 0.00 36 1014.0
20220522054544 62 263 0.0 0.0 0.00 0.00 0.00 34 1013.9
20220522053043 63 263 0.0 0.0 0.00 0.00 0.00 32 1013.8
20220522051553 64 112 0.0 1.0 0.00 0.00 0.00 30 1013.7
20220522050040 64 48 0.0 0.0 0.00 0.00 0.00 31 1013.5
20220522044538 65 88 0.0 2.0 0.00 0.00 0.00 31 1013.1
20220522043037 66 118 0.0 5.0 0.00 0.00 0.00 30 1012.9
20220522041541 67 136 1.0 4.0 0.00 0.00 0.00 30 1012.8
20220522040034 67 96 2.0 5.0 0.00 0.00 0.00 30 1012.6
20220522034531 68 79 2.0 5.0 0.00 0.00 0.00 30 1012.4
20220522033030 68 84 1.0 3.0 0.00 0.00 0.00 30 1012.2
20220522031528 69 99 2.0 5.0 0.00 0.00 0.00 29 1012.0
20220522030029 70 125 2.0 5.0 0.00 0.00 0.00 28 1012.0
20220522024524 71 81 4.0 9.0 0.00 0.00 0.00 27 1011.9
20220522023026 73 79 3.0 7.0 0.00 0.00 0.00 26 1011.7
20220522021524 74 48 3.0 9.0 0.00 0.00 0.00 26 1011.5
20220522020024 75 105 3.0 9.0 0.00 0.00 0.00 26 1011.4
20220522014523 75 106 4.0 9.0 0.00 0.00 0.00 25 1011.8
20220522013022 76 81 2.0 8.0 0.00 0.00 0.00 26 1011.4
20220522011521 76 76 3.0 7.0 0.00 0.00 0.00 24 1011.3
20220522010019 76 76 4.0 8.0 0.00 0.00 0.00 25 1011.3
20220522004526 76 89 2.0 8.0 0.00 0.00 0.00 24 1011.3
20220522003018 76 72 4.0 10.0 0.00 0.00 0.00 25 1011.4
20220522001518 78 301 1.0 3.0 0.00 0.00 0.00 23 1011.2
20220522000019 76 71 2.0 11.0 0.00 0.00 0.00 25 1011.4
20220521234519 76 97 1.0 10.0 0.00 0.00 0.00 26 1011.4
20220521233025 76 34 4.0 9.0 0.00 0.00 0.00 25 1011.2
20220521231516 77 83 1.0 10.0 0.00 0.00 0.00 24 1011.4
20220521230016 78 283 1.0 10.0 0.00 0.00 0.00 26 1011.4
20220521224518 78 23 1.0 5.0 0.00 0.00 0.00 25 1011.5
20220521223012 77 343 2.0 9.0 0.00 0.00 0.00 25 1011.6
20220521221528 77 329 0.0 5.0 0.00 0.00 0.00 27 1011.5
20220521220010 75 165 4.0 10.0 0.00 0.00 0.00 23 1011.7
20220521214509 77 334 1.0 8.0 0.00 0.00 0.00 26 1011.7
20220521213012 77 346 0.0 8.0 0.00 0.00 0.00 24 1011.7
20220521211507 76 70 5.0 9.0 0.00 0.00 0.00 25 1011.7
20220521210008 77 268 1.0 4.0 0.00 0.00 0.00 26 1011.7
20220521204505 76 92 2.0 7.0 0.00 0.00 0.00 24 1011.7
20220521203003 76 50 1.0 7.0 0.00 0.00 0.00 25 1011.8
20220521201503 76 276 1.0 7.0 0.00 0.00 0.00 25 1011.7
20220521200103 75 71 2.0 10.0 0.00 0.00 0.00 26 1011.6
20220521194557 75 91 2.0 10.0 0.00 0.00 0.00 26 1011.5
20220521193057 74 59 1.0 10.0 0.00 0.00 0.00 28 1011.4
20220521191557 74 108 3.0 9.0 0.00 0.00 0.00 24 1011.3
20220521190053 74 70 1.0 8.0 0.00 0.00 0.00 27 1011.2
20220521184555 74 91 0.0 4.0 0.00 0.00 0.00 27 1011.1
20220521183053 73 19 3.0 10.0 0.00 0.00 0.00 27 1011.1
20220521181611 73 13 3.0 9.0 0.00 0.00 0.00 27 1011.0
20220521180049 73 97 1.0 4.0 0.00 0.00 0.00 30 1011.0
20220521174601 73 26 1.0 6.0 0.00 0.00 0.00 33 1011.0
20220521173058 73 8 0.0 6.0 0.00 0.00 0.00 37 1011.0
20220521171553 71 75 1.0 3.0 0.00 0.00 0.00 35 1011.0
20220521170038 71 75 0.0 6.0 0.00 0.00 0.00 34 1011.1
20220521164537 70 262 0.0 6.0 0.00 0.00 0.00 37 1011.0
20220521163042 70 311 1.0 4.0 0.00 0.00 0.00 34 1011.0
20220521161533 67 257 1.0 6.0 0.00 0.00 0.00 37 1011.1
20220521160034 66 308 3.0 7.0 0.00 0.00 0.00 38 1011.1
20220521154523 64 279 2.0 8.0 0.00 0.00 0.00 40 1011.0
20220521153020 62 279 4.0 8.0 0.00 0.00 0.00 40 1010.9
20220521151516 61 243 1.0 7.0 0.00 0.00 0.00 43 1010.9
20220521150013 60 264 1.0 8.0 0.00 0.00 0.00 44 1010.8